GW4813 Weather Reports


time (UTC)temp
C
wind
direction
speed
KPH
gust
KPH
rain 1hr
cm
rain 24hr
cm
rain mn
cm
humidity
%
barometer
mb
20260903024512 25 150 0.0 1.6 0.00 0.00 0.00 84 1017.1
20260903023004 26 178 0.0 0.0 0.00 0.00 0.00 84 1017.1
20260903021524 26 178 0.0 0.0 0.00 0.00 0.00 83 1017.1
20260903020009 26 179 0.0 0.0 0.00 0.00 0.00 82 1017.1
20260903014512 26 186 0.0 0.0 0.00 0.00 0.00 81 1017.1
20260903013015 27 195 0.0 0.0 0.00 0.00 0.00 79 1016.9
20260903011504 27 240 0.0 0.0 0.00 0.00 0.00 78 1016.8
20260903010007 27 245 0.0 0.0 0.00 0.00 0.00 77 1016.6
20260903004517 27 245 0.0 0.0 0.00 0.00 0.00 76 1016.7
20260903003020 28 245 0.0 0.0 0.00 0.00 0.00 74 1016.6
20260903001516 28 245 0.0 1.6 0.00 0.00 0.00 71 1016.5
20260903000005 30 244 0.0 6.4 0.00 0.00 0.00 69 1016.5
20260902234507 30 265 4.8 11.3 0.00 0.00 0.00 66 1016.4
20260902233022 31 241 4.8 11.3 0.00 0.00 0.00 64 1016.4
20260902231525 31 231 6.4 12.9 0.00 0.00 0.00 63 1016.4
20260902230018 32 266 6.4 11.3 0.00 0.00 0.00 60 1016.5
20260902224507 32 271 6.4 11.3 0.00 0.00 0.00 59 1016.4
20260902223012 32 254 8.0 14.5 0.00 0.00 0.00 58 1016.5
20260902221517 33 284 6.4 14.5 0.00 0.00 0.00 60 1016.4
20260902220026 33 226 6.4 14.5 0.00 0.00 0.00 59 1016.6
20260902214520 33 286 8.0 17.7 0.00 0.00 0.00 58 1016.6
20260902213009 33 248 6.4 14.5 0.00 0.00 0.00 58 1016.6
20260902211511 33 310 8.0 17.7 0.00 0.00 0.00 58 1016.7
20260902210022 33 234 11.3 17.7 0.00 0.00 0.00 57 1016.8
20260902204523 33 252 6.4 16.1 0.00 0.00 0.00 57 1017.0
20260902203027 33 271 6.4 16.1 0.00 0.00 0.00 57 1017.1
20260902201531 33 261 9.7 17.7 0.00 0.00 0.00 55 1017.3
20260902200019 33 272 9.7 16.1 0.00 0.00 0.00 54 1017.4
20260902194526 33 153 9.7 17.7 0.00 0.00 0.00 54 1017.6
20260902193005 33 267 8.0 17.7 0.00 0.00 0.00 53 1017.6
20260902191511 33 223 4.8 19.3 0.00 0.00 0.00 56 1017.6
20260902190010 33 171 8.0 19.3 0.00 0.00 0.00 55 1017.9
20260902184516 33 4 8.0 19.3 0.00 0.00 0.00 55 1018.0
20260902183004 33 258 8.0 14.5 0.00 0.00 0.00 59 1018.2
20260902181504 31 262 6.4 12.9 0.00 0.00 0.00 63 1018.2
20260902180008 32 272 6.4 16.1 0.00 0.00 0.00 60 1018.3
20260902174511 33 269 4.8 12.9 0.00 0.00 0.00 61 1018.4
20260902173020 33 264 8.0 14.5 0.00 0.00 0.00 63 1018.6
20260902171504 32 260 8.0 14.5 0.00 0.00 0.00 61 1018.9
20260902170006 32 246 8.0 17.7 0.00 0.00 0.00 59 1018.9
20260902164512 32 263 4.8 14.5 0.00 0.00 0.00 63 1019.0
20260902163015 32 219 6.4 11.3 0.00 0.00 0.00 61 1019.1
20260902161521 32 236 4.8 11.3 0.00 0.00 0.00 61 1019.0
20260902160036 32 184 4.8 11.3 0.00 0.00 0.00 64 1019.1
20260902154507 31 290 3.2 11.3 0.00 0.00 0.00 65 1019.2
20260902153009 31 249 6.4 11.3 0.00 0.00 0.00 66 1019.2
20260902151517 30 284 4.8 11.3 0.00 0.00 0.00 66 1019.2
20260902150023 30 278 4.8 11.3 0.00 0.00 0.00 69 1019.3
20260902144528 29 271 6.4 12.9 0.00 0.00 0.00 70 1019.4
20260902143009 29 243 4.8 11.3 0.00 0.00 0.00 72 1019.3
20260902141515 28 239 4.8 9.7 0.00 0.00 0.00 75 1019.3
20260902140019 28 245 4.8 9.7 0.00 0.00 0.00 76 1019.3
20260902134528 27 238 3.2 11.3 0.00 0.00 0.00 78 1019.3
20260902133027 27 214 4.8 11.3 0.00 0.00 0.00 80 1019.4
20260902131511 26 287 1.6 6.4 0.00 0.00 0.00 82 1019.4
20260902130014 26 264 3.2 8.0 0.00 0.00 0.00 83 1019.3
20260902124523 25 216 0.0 0.0 0.00 0.00 0.00 87 1019.3
20260902123026 23 233 0.0 0.0 0.00 0.00 0.00 89 1019.1
20260902121528 23 262 0.0 0.0 0.00 0.00 0.00 90 1019.1
20260902120010 22 280 0.0 0.0 0.00 0.00 0.00 91 1018.9
20260902114531 22 103 0.0 0.0 0.00 0.00 0.00 92 1018.8
20260902113028 22 103 0.0 0.0 0.00 0.00 0.00 93 1018.6
20260902111529 21 103 0.0 0.0 0.00 0.00 0.00 92 1018.5
20260902110031 21 118 0.0 0.0 0.00 0.00 0.00 93 1018.5
20260902104514 21 118 0.0 0.0 0.00 0.00 0.00 93 1018.5
20260902103008 21 118 0.0 0.0 0.00 0.00 0.00 94 1018.3
20260902101503 21 136 0.0 0.0 0.00 0.00 0.00 94 1018.4
20260902100008 21 136 0.0 0.0 0.00 0.00 0.00 94 1018.4
20260902094512 21 136 0.0 0.0 0.00 0.00 0.00 94 1018.4
20260902093024 21 136 0.0 0.0 0.00 0.00 0.00 94 1018.4
20260902091526 21 136 0.0 0.0 0.00 0.00 0.00 94 1018.3
20260902090005 21 139 0.0 0.0 0.00 0.00 0.00 93 1018.3
20260902084515 22 138 0.0 0.0 0.00 0.00 0.00 93 1018.2
20260902083019 22 138 0.0 0.0 0.00 0.00 0.00 92 1018.2
20260902081523 22 139 0.0 0.0 0.00 0.00 0.00 91 1018.0
20260902080027 22 139 0.0 0.0 0.00 0.00 0.00 90 1017.9
20260902074512 23 139 0.0 0.0 0.00 0.00 0.00 89 1017.8
20260902073011 23 264 0.0 0.0 0.00 0.00 0.00 88 1017.8
20260902071519 24 264 0.0 0.0 0.00 0.00 0.00 86 1017.8
20260902070023 24 263 0.0 0.0 0.00 0.00 0.00 86 1017.8
20260902064530 23 252 0.0 0.0 0.00 0.00 0.00 87 1017.7
20260902063010 23 280 0.0 0.0 0.00 0.00 0.00 88 1017.7
20260902061521 23 231 0.0 1.6 0.00 0.00 0.00 90 1017.8
20260902060018 23 110 0.0 0.0 0.00 0.00 0.00 90 1017.8
20260902054536 23 110 0.0 0.0 0.00 0.00 0.00 91 1017.8
20260902053028 23 110 0.0 0.0 0.00 0.00 0.00 91 1017.8
20260902051512 23 110 0.0 0.0 0.00 0.00 0.00 91 1017.7
20260902050032 23 110 0.0 0.0 0.00 0.00 0.00 88 1017.7
20260902044523 23 110 0.0 0.0 0.00 0.00 0.00 89 1017.8
20260902043028 23 111 0.0 0.0 0.00 0.00 0.00 90 1017.9
20260902041531 23 117 0.0 0.0 0.00 0.00 0.00 88 1017.9
20260902040014 24 117 0.0 0.0 0.00 0.00 0.00 88 1017.9
20260902034518 24 117 0.0 0.0 0.00 0.00 0.00 88 1017.8
20260902033025 24 117 0.0 0.0 0.00 0.00 0.00 88 1017.8
20260902031531 24 117 0.0 0.0 0.00 0.00 0.00 88 1017.9
20260902030009 25 117 0.0 0.0 0.00 0.00 0.00 88 1017.8